• In United Kingdom
  • List of Countries
  • For 7 days
  • Water Temperature
  • Satellite Maps
  • Weather Map
  • Weather Widgets
  • user-avatar
    Login

    Hourly Weather Sharan

    Today, 19 October, Friday

    Time Temperature Precipitation Wind Pressure Humidity
    00:00 +8°C° 0 mm 2 mps 586 mmHg 32%
    01:00 +8°C° 0 mm 1 mps 586 mmHg 33%
    02:00 +8°C° 0 mm 1 mps 586 mmHg 34%
    03:00 +7°C° 0 mm 1 mps 585 mmHg 35%
    04:00 +7°C° 0 mm 1 mps 585 mmHg 36%
    05:00 +6°C° 0 mm 1 mps 585 mmHg 37%
    06:00 +7°C° 0 mm 1 mps 586 mmHg 35%
    07:00 +8°C° 0 mm 1 mps 586 mmHg 32%
    08:00 +9°C° 0 mm 1 mps 587 mmHg 30%
    09:00 +10°C° 0 mm 1 mps 588 mmHg 28%
    10:00 +12°C° 0 mm 1 mps 588 mmHg 25%
    11:00 +13°C° 0 mm 1 mps 589 mmHg 23%
    12:00 +14°C° 0 mm 2 mps 589 mmHg 21%
    13:00 +15°C° 0 mm 2 mps 589 mmHg 20%
    14:00 +15°C° 0 mm 2 mps 589 mmHg 18%
    15:00 +15°C° 0 mm 2 mps 589 mmHg 18%
    16:00 +14°C° 0 mm 3 mps 588 mmHg 18%
    17:00 +14°C° 0 mm 3 mps 588 mmHg 17%
    18:00 +14°C° 0 mm 2 mps 588 mmHg 20%
    19:00 +13°C° 0 mm 2 mps 588 mmHg 22%
    20:00 +12°C° 0 mm 2 mps 588 mmHg 24%
    21:00 +11°C° 0 mm 1 mps 588 mmHg 26%
    22:00 +10°C° 0 mm 1 mps 588 mmHg 27%
    23:00 +9°C° 0 mm 1 mps 588 mmHg 29%

    Tomorrow, 20 October, Saturday

    Time Temperature Precipitation Wind Pressure Humidity
    00:00 +9°C° 0 mm 1 mps 588 mmHg 30%
    01:00 +8°C° 0 mm 1 mps 587 mmHg 31%
    02:00 +6°C° 0 mm 0 mps 587 mmHg 32%
    03:00 +6°C° 0 mm 0 mps 587 mmHg 33%
    04:00 +5°C° 0 mm 0 mps 587 mmHg 33%
    05:00 +5°C° 0 mm 0 mps 586 mmHg 34%
    06:00 +6°C° 0 mm 0 mps 587 mmHg 32%
    07:00 +7°C° 0 mm 0 mps 588 mmHg 29%
    08:00 +8°C° 0 mm 0 mps 589 mmHg 27%
    09:00 +11°C° 0 mm 1 mps 590 mmHg 24%
    10:00 +12°C° 0 mm 1 mps 590 mmHg 22%
    11:00 +13°C° 0 mm 2 mps 591 mmHg 19%
    12:00 +14°C° 0 mm 2 mps 591 mmHg 18%
    13:00 +14°C° 0 mm 3 mps 591 mmHg 16%
    14:00 +15°C° 0 mm 4 mps 590 mmHg 15%
    15:00 +16°C° 0 mm 3 mps 590 mmHg 15%
    16:00 +14°C° 0 mm 3 mps 590 mmHg 15%
    17:00 +14°C° 0 mm 3 mps 590 mmHg 15%
    18:00 +14°C° 0 mm 2 mps 590 mmHg 16%
    19:00 +12°C° 0 mm 2 mps 589 mmHg 18%
    20:00 +11°C° 0 mm 1 mps 589 mmHg 20%
    21:00 +10°C° 0 mm 1 mps 589 mmHg 22%
    22:00 +10°C° 0 mm 1 mps 589 mmHg 23%
    23:00 +9°C° 0 mm 1 mps 589 mmHg 24%

    Day after tomorrow, 21 October, Sunday

    Time Temperature Precipitation Wind Pressure Humidity
    00:00 +9°C° 0 mm 1 mps 589 mmHg 25%
    01:00 +8°C° 0 mm 1 mps 588 mmHg 25%
    02:00 +8°C° 0 mm 1 mps 588 mmHg 26%
    03:00 +7°C° 0 mm 1 mps 588 mmHg 27%
    04:00 +6°C° 0 mm 1 mps 587 mmHg 28%
    05:00 +6°C° 0 mm 1 mps 587 mmHg 29%
    06:00 +7°C° 0 mm 1 mps 588 mmHg 27%
    07:00 +8°C° 0 mm 1 mps 589 mmHg 25%
    08:00 +9°C° 0 mm 1 mps 589 mmHg 23%
    09:00 +11°C° 0 mm 1 mps 590 mmHg 21%
    10:00 +12°C° 0 mm 2 mps 591 mmHg 19%
    11:00 +13°C° 0 mm 2 mps 591 mmHg 16%
    12:00 +13°C° 0 mm 3 mps 591 mmHg 15%
    13:00 +14°C° 0 mm 3 mps 591 mmHg 14%
    14:00 +16°C° 0 mm 3 mps 591 mmHg 12%
    15:00 +16°C° 0 mm 3 mps 590 mmHg 12%
    16:00 +14°C° 0 mm 3 mps 590 mmHg 13%
    17:00 +14°C° 0 mm 3 mps 590 mmHg 13%
    18:00 +14°C° 0 mm 2 mps 590 mmHg 15%
    19:00 +12°C° 0 mm 2 mps 590 mmHg 17%
    20:00 +11°C° 0 mm 1 mps 589 mmHg 19%
    21:00 +10°C° 0 mm 1 mps 589 mmHg 21%
    22:00 +10°C° 0 mm 1 mps 589 mmHg 22%
    23:00 +9°C° 0 mm 1 mps 589 mmHg 24%

    22 October, Monday

    Time Temperature Precipitation Wind Pressure Humidity
    00:00 +8°C° 0 mm 1 mps 588 mmHg 25%
    01:00 +8°C° 0 mm 1 mps 588 mmHg 25%
    02:00 +7°C° 0 mm 1 mps 587 mmHg 26%
    03:00 +6°C° 0 mm 1 mps 587 mmHg 26%
    04:00 +6°C° 0 mm 1 mps 586 mmHg 26%
    05:00 +6°C° 0 mm 1 mps 586 mmHg 27%
    06:00 +7°C° 0 mm 1 mps 587 mmHg 25%
    07:00 +8°C° 0 mm 1 mps 588 mmHg 23%
    08:00 +9°C° 0 mm 1 mps 588 mmHg 21%
    09:00 +10°C° 0 mm 1 mps 589 mmHg 19%
    10:00 +12°C° 0 mm 1 mps 589 mmHg 17%
    11:00 +13°C° 0 mm 1 mps 590 mmHg 16%
    12:00 +14°C° 0 mm 2 mps 589 mmHg 15%
    13:00 +15°C° 0 mm 2 mps 589 mmHg 14%
    14:00 +15°C° 0 mm 2 mps 589 mmHg 13%
    15:00 +15°C° 0 mm 2 mps 589 mmHg 13%
    16:00 +15°C° 0 mm 2 mps 589 mmHg 13%
    17:00 +15°C° 0 mm 2 mps 588 mmHg 13%
    18:00 +14°C° 0 mm 2 mps 588 mmHg 15%
    19:00 +12°C° 0 mm 2 mps 588 mmHg 17%
    20:00 +11°C° 0 mm 1 mps 588 mmHg 19%
    21:00 +10°C° 0 mm 1 mps 587 mmHg 21%
    22:00 +10°C° 0 mm 1 mps 587 mmHg 22%
    23:00 +9°C° 0 mm 1 mps 587 mmHg 24%

    23 October, Tuesday

    Time Temperature Precipitation Wind Pressure Humidity
    00:00 +8°C° 0 mm 1 mps 587 mmHg 25%
    01:00 +8°C° 0 mm 1 mps 586 mmHg 26%
    02:00 +7°C° 0 mm 1 mps 586 mmHg 27%
    03:00 +7°C° 0 mm 1 mps 586 mmHg 27%
    04:00 +6°C° 0 mm 1 mps 585 mmHg 28%
    05:00 +6°C° 0 mm 1 mps 585 mmHg 29%
    06:00 +7°C° 0 mm 1 mps 586 mmHg 26%
    07:00 +8°C° 0 mm 1 mps 587 mmHg 23%
    08:00 +9°C° 0 mm 1 mps 588 mmHg 21%
    09:00 +11°C° 0 mm 1 mps 588 mmHg 18%
    10:00 +13°C° 0 mm 1 mps 589 mmHg 16%
    11:00 +14°C° 0 mm 1 mps 589 mmHg 13%
    12:00 +15°C° 0 mm 1 mps 589 mmHg 12%
    13:00 +16°C° 0 mm 2 mps 589 mmHg 11%
    14:00 +17°C° 0 mm 2 mps 589 mmHg 10%
    15:00 +16°C° 0 mm 2 mps 589 mmHg 10%
    16:00 +16°C° 0 mm 2 mps 588 mmHg 10%
    17:00 +16°C° 0 mm 3 mps 588 mmHg 10%
    18:00 +14°C° 0 mm 2 mps 588 mmHg 13%
    19:00 +13°C° 0 mm 2 mps 588 mmHg 15%
    20:00 +12°C° 0 mm 1 mps 587 mmHg 17%
    21:00 +11°C° 0 mm 1 mps 587 mmHg 19%
    22:00 +11°C° 0 mm 1 mps 587 mmHg 20%
    23:00 +10°C° 0 mm 1 mps 587 mmHg 22%

    24 October, Wednesday

    Time Temperature Precipitation Wind Pressure Humidity
    00:00 +10°C° 0 mm 1 mps 586 mmHg 24%
    01:00 +9°C° 0 mm 1 mps 586 mmHg 25%
    02:00 +9°C° 0 mm 1 mps 585 mmHg 27%
    03:00 +8°C° 0 mm 1 mps 585 mmHg 28%
    04:00 +8°C° 0 mm 1 mps 585 mmHg 29%
    05:00 +8°C° 0 mm 1 mps 585 mmHg 31%
    06:00 +9°C° 0 mm 1 mps 585 mmHg 29%
    07:00 +10°C° 0 mm 1 mps 586 mmHg 28%
    08:00 +10°C° 0 mm 1 mps 587 mmHg 26%
    09:00 +12°C° 0 mm 1 mps 587 mmHg 24%
    10:00 +13°C° 0 mm 1 mps 588 mmHg 23%
    11:00 +14°C° 0 mm 1 mps 588 mmHg 21%
    12:00 +15°C° 0 mm 2 mps 588 mmHg 20%
    13:00 +16°C° 0 mm 2 mps 588 mmHg 19%
    14:00 +17°C° 0 mm 2 mps 587 mmHg 18%
    15:00 +16°C° 0 mm 2 mps 588 mmHg 19%
    16:00 +16°C° 0 mm 2 mps 588 mmHg 20%
    17:00 +16°C° 0 mm 2 mps 588 mmHg 21%
    18:00 +14°C° 0 mm 3 mps 588 mmHg 24%
    19:00 +13°C° 0 mm 3 mps 588 mmHg 26%
    20:00 +12°C° 0 mm 4 mps 588 mmHg 29%
    21:00 +12°C° 0 mm 4 mps 588 mmHg 30%
    22:00 +11°C° 0 mm 4 mps 588 mmHg 32%
    23:00 +10°C° 0 mm 3 mps 588 mmHg 34%
    Show more